PAF4704 RPVM-RPMR

Flight info

Callsign PAF4704
Flight time 1h 17m
Altitude 17000
Route BOLOB2A BOLOB W21 COT W19 MELBY MELBY3P
Aircraft C130/M-SDFGY/S

Departure

Time 2026-05-09 00:10
Airport Mactan Cebu International Airport (RPVM)

Arrival

Time 2026-05-09 01:27
Airport General Santos International Airport (RPMR)
Time Latitude Longitude Altitude Speed Heading
2026-05-08 23:52 10.30956 123.97508 40 ft 0 kts 44°
2026-05-09 00:03 10.30976 123.97528 39 ft 9 kts 44°
2026-05-09 00:03 10.31003 123.97555 40 ft 8 kts 45°
2026-05-09 00:03 10.31040 123.97595 40 ft 8 kts 47°
2026-05-09 00:04 10.31036 123.97646 38 ft 6 kts 138°
2026-05-09 00:04 10.31012 123.97669 40 ft 8 kts 136°
2026-05-09 00:04 10.30967 123.97713 40 ft 9 kts 144°
2026-05-09 00:04 10.30910 123.97693 39 ft 10 kts 225°
2026-05-09 00:05 10.30854 123.97637 40 ft 12 kts 224°
2026-05-09 00:05 10.30787 123.97571 40 ft 14 kts 224°
2026-05-09 00:05 10.30714 123.97497 40 ft 15 kts 224°
2026-05-09 00:05 10.30637 123.97420 40 ft 17 kts 224°
2026-05-09 00:06 10.30551 123.97334 40 ft 18 kts 225°
2026-05-09 00:06 10.30462 123.97245 41 ft 18 kts 224°
2026-05-09 00:06 10.30373 123.97154 38 ft 18 kts 225°
2026-05-09 00:06 10.30279 123.97060 40 ft 19 kts 225°
2026-05-09 00:07 10.30185 123.96965 40 ft 19 kts 225°
2026-05-09 00:07 10.30088 123.96868 37 ft 20 kts 224°
2026-05-09 00:07 10.29992 123.96771 38 ft 18 kts 225°
2026-05-09 00:07 10.29923 123.96706 28 ft 8 kts 208°
2026-05-09 00:08 10.29861 123.96729 38 ft 10 kts 134°
2026-05-09 00:08 10.29807 123.96783 38 ft 11 kts 135°
2026-05-09 00:08 10.29750 123.96842 36 ft 12 kts 134°
2026-05-09 00:08 10.29722 123.96907 35 ft 8 kts 54°
2026-05-09 00:09 10.29733 123.96919 34 ft 0 kts 45°
2026-05-09 00:09 10.29773 123.96959 33 ft 35 kts 45°
2026-05-09 00:10 10.30121 123.97311 37 ft 103 kts 45°
2026-05-09 00:10 10.30733 123.97915 254 ft 139 kts 44°
2026-05-09 00:10 10.31474 123.98663 607 ft 159 kts 45°
2026-05-09 00:10 10.32267 123.99482 1019 ft 165 kts 47°
2026-05-09 00:11 10.33087 124.00342 1294 ft 180 kts 46°
2026-05-09 00:11 10.33992 124.01278 1395 ft 186 kts 46°
2026-05-09 00:11 10.34878 124.02205 1692 ft 183 kts 46°
2026-05-09 00:11 10.35777 124.03134 2018 ft 186 kts 46°
2026-05-09 00:12 10.36642 124.04111 2350 ft 186 kts 63°
2026-05-09 00:12 10.36765 124.05359 2608 ft 179 kts 107°
2026-05-09 00:12 10.35984 124.06306 2843 ft 181 kts 150°
2026-05-09 00:12 10.34741 124.06451 3082 ft 187 kts 192°
2026-05-09 00:13 10.33520 124.05967 3356 ft 192 kts 199°
2026-05-09 00:13 10.32260 124.05429 3667 ft 201 kts 201°
2026-05-09 00:13 10.30946 124.04854 3948 ft 209 kts 199°
2026-05-09 00:13 10.29585 124.04362 4231 ft 205 kts 193°
2026-05-09 00:14 10.28221 124.03992 4459 ft 202 kts 189°
2026-05-09 00:14 10.26850 124.03718 4685 ft 201 kts 185°
2026-05-09 00:14 10.25470 124.03519 4912 ft 200 kts 183°
2026-05-09 00:14 10.24084 124.03372 5133 ft 200 kts 181°
2026-05-09 00:15 10.22715 124.03264 5345 ft 200 kts 180°
2026-05-09 00:15 10.21322 124.03179 5567 ft 201 kts 179°
2026-05-09 00:15 10.19925 124.03106 5793 ft 201 kts 179°
2026-05-09 00:15 10.18521 124.03041 6012 ft 202 kts 179°
2026-05-09 00:16 10.17113 124.02981 6250 ft 203 kts 179°
2026-05-09 00:16 10.15698 124.02920 6496 ft 204 kts 179°
2026-05-09 00:16 10.14278 124.02860 6736 ft 204 kts 179°
2026-05-09 00:16 10.12856 124.02801 6946 ft 205 kts 178°
2026-05-09 00:17 10.11426 124.02738 7158 ft 206 kts 179°
2026-05-09 00:17 10.09999 124.02676 7408 ft 205 kts 179°
2026-05-09 00:17 10.08581 124.02613 7688 ft 203 kts 178°
2026-05-09 00:17 10.07174 124.02548 7965 ft 202 kts 178°
2026-05-09 00:18 10.05766 124.02485 8281 ft 202 kts 179°
2026-05-09 00:18 10.04355 124.02422 8560 ft 204 kts 179°
2026-05-09 00:18 10.02932 124.02359 8843 ft 205 kts 179°
2026-05-09 00:18 10.01505 124.02298 9148 ft 206 kts 179°
2026-05-09 00:19 10.00074 124.02233 9442 ft 206 kts 179°
2026-05-09 00:19 9.98635 124.02171 9722 ft 207 kts 179°
2026-05-09 00:19 9.97192 124.02108 9982 ft 208 kts 179°
2026-05-09 00:19 9.95744 124.02043 10243 ft 208 kts 179°
2026-05-09 00:20 9.94293 124.01977 10506 ft 209 kts 179°
2026-05-09 00:20 9.92836 124.01911 10751 ft 210 kts 179°
2026-05-09 00:20 9.91378 124.01844 11027 ft 210 kts 179°
2026-05-09 00:20 9.89916 124.01836 11302 ft 210 kts 175°
2026-05-09 00:21 9.88459 124.01880 11568 ft 210 kts 174°
2026-05-09 00:21 9.87014 124.01952 11833 ft 210 kts 173°
2026-05-09 00:21 9.85551 124.02041 12107 ft 211 kts 173°
2026-05-09 00:21 9.84083 124.02141 12392 ft 211 kts 172°
2026-05-09 00:22 9.82612 124.02244 12675 ft 212 kts 172°
2026-05-09 00:22 9.81139 124.02350 12953 ft 212 kts 172°
2026-05-09 00:22 9.79663 124.02459 13240 ft 213 kts 172°
2026-05-09 00:22 9.78179 124.02564 13533 ft 214 kts 172°
2026-05-09 00:23 9.76696 124.02670 13813 ft 214 kts 172°
2026-05-09 00:23 9.75212 124.02777 14069 ft 214 kts 172°
2026-05-09 00:23 9.73724 124.02882 14317 ft 214 kts 172°
2026-05-09 00:23 9.72235 124.02986 14564 ft 215 kts 172°
2026-05-09 00:24 9.70746 124.03090 14815 ft 215 kts 172°
2026-05-09 00:24 9.69253 124.03194 15063 ft 215 kts 172°
2026-05-09 00:24 9.67761 124.03297 15314 ft 215 kts 172°
2026-05-09 00:24 9.66261 124.03404 15561 ft 218 kts 172°
2026-05-09 00:25 9.64725 124.03516 15842 ft 223 kts 172°
2026-05-09 00:25 9.63167 124.03623 16171 ft 226 kts 173°
2026-05-09 00:25 9.61585 124.03733 16441 ft 230 kts 173°
2026-05-09 00:25 9.59979 124.03845 16729 ft 233 kts 172°
2026-05-09 00:26 9.58337 124.03960 16859 ft 243 kts 172°
2026-05-09 00:26 9.56608 124.04087 16871 ft 255 kts 173°
2026-05-09 00:26 9.54829 124.04216 16881 ft 264 kts 173°
2026-05-09 00:26 9.52970 124.04347 16899 ft 271 kts 173°
2026-05-09 00:27 9.51092 124.04475 16898 ft 270 kts 173°
2026-05-09 00:27 9.49190 124.04607 16898 ft 270 kts 173°
2026-05-09 00:27 9.47338 124.04734 16898 ft 271 kts 173°
2026-05-09 00:27 9.45458 124.04865 16902 ft 271 kts 173°
2026-05-09 00:28 9.43574 124.04997 16898 ft 271 kts 173°
2026-05-09 00:28 9.41694 124.05128 16901 ft 271 kts 173°
2026-05-09 00:28 9.39811 124.05260 16899 ft 271 kts 173°
2026-05-09 00:28 9.37924 124.05393 16899 ft 272 kts 173°
2026-05-09 00:29 9.36041 124.05526 16887 ft 272 kts 173°
2026-05-09 00:29 9.34154 124.05659 16892 ft 272 kts 173°
2026-05-09 00:29 9.32271 124.05793 16895 ft 271 kts 173°
2026-05-09 00:29 9.30386 124.05926 16900 ft 271 kts 173°
2026-05-09 00:30 9.28502 124.06059 16895 ft 271 kts 173°
2026-05-09 00:30 9.26619 124.06193 16894 ft 271 kts 173°
2026-05-09 00:30 9.24733 124.06326 16895 ft 271 kts 173°
2026-05-09 00:30 9.22851 124.06458 16890 ft 271 kts 173°
2026-05-09 00:31 9.20969 124.06592 16896 ft 271 kts 173°
2026-05-09 00:31 9.19088 124.06725 16887 ft 271 kts 173°
2026-05-09 00:31 9.17204 124.06858 16893 ft 271 kts 173°
2026-05-09 00:31 9.15321 124.06992 16896 ft 271 kts 173°
2026-05-09 00:32 9.13438 124.07125 16891 ft 271 kts 173°
2026-05-09 00:32 9.11557 124.07257 16887 ft 271 kts 173°
2026-05-09 00:32 9.09674 124.07391 16893 ft 271 kts 173°
2026-05-09 00:32 9.07793 124.07524 16886 ft 271 kts 173°
2026-05-09 00:33 9.05936 124.07655 16890 ft 271 kts 173°
2026-05-09 00:33 9.04053 124.07788 16891 ft 271 kts 173°
2026-05-09 00:33 9.02172 124.07921 16885 ft 271 kts 173°
2026-05-09 00:33 9.00289 124.08055 16888 ft 271 kts 173°
2026-05-09 00:34 8.98407 124.08188 16894 ft 271 kts 173°
2026-05-09 00:34 8.96527 124.08322 16891 ft 271 kts 173°
2026-05-09 00:34 8.94644 124.08453 16889 ft 271 kts 173°
2026-05-09 00:34 8.92764 124.08586 16892 ft 271 kts 173°
2026-05-09 00:35 8.90883 124.08718 16893 ft 271 kts 173°
2026-05-09 00:35 8.89000 124.08851 16890 ft 271 kts 173°
2026-05-09 00:35 8.87118 124.08983 16887 ft 271 kts 173°
2026-05-09 00:35 8.85231 124.09116 16888 ft 272 kts 173°
2026-05-09 00:36 8.83345 124.09248 16884 ft 272 kts 173°
2026-05-09 00:36 8.81458 124.09380 16900 ft 272 kts 173°
2026-05-09 00:36 8.79574 124.09513 16889 ft 272 kts 173°
2026-05-09 00:36 8.77689 124.09645 16896 ft 272 kts 173°
2026-05-09 00:37 8.75807 124.09778 16888 ft 272 kts 173°
2026-05-09 00:37 8.73920 124.09910 16890 ft 272 kts 173°
2026-05-09 00:37 8.72036 124.10042 16895 ft 272 kts 173°
2026-05-09 00:37 8.70150 124.10174 16895 ft 272 kts 173°
2026-05-09 00:38 8.68263 124.10307 16895 ft 272 kts 173°
2026-05-09 00:38 8.66379 124.10439 16898 ft 272 kts 173°
2026-05-09 00:38 8.64493 124.10572 16892 ft 272 kts 173°
2026-05-09 00:38 8.62608 124.10704 16891 ft 272 kts 173°
2026-05-09 00:39 8.60720 124.10836 16894 ft 272 kts 173°
2026-05-09 00:39 8.58836 124.10969 16897 ft 272 kts 173°
2026-05-09 00:39 8.56950 124.11101 16894 ft 272 kts 173°
2026-05-09 00:39 8.55088 124.11232 16891 ft 272 kts 173°
2026-05-09 00:40 8.53203 124.11364 16898 ft 272 kts 173°
2026-05-09 00:40 8.51317 124.11496 16896 ft 272 kts 173°
2026-05-09 00:40 8.49429 124.11629 16902 ft 272 kts 173°
2026-05-09 00:41 8.45657 124.11894 16892 ft 272 kts 173°
2026-05-09 00:41 8.43771 124.12026 16904 ft 272 kts 173°
2026-05-09 00:41 8.41886 124.12158 16902 ft 272 kts 173°
2026-05-09 00:41 8.39996 124.12291 16899 ft 272 kts 173°
2026-05-09 00:42 8.38113 124.12423 16905 ft 272 kts 173°
2026-05-09 00:42 8.36226 124.12555 16897 ft 272 kts 173°
2026-05-09 00:42 8.34335 124.12687 16904 ft 272 kts 173°
2026-05-09 00:42 8.32448 124.12820 16899 ft 272 kts 173°
2026-05-09 00:43 8.30559 124.12952 16907 ft 272 kts 173°
2026-05-09 00:43 8.28670 124.13084 16908 ft 272 kts 173°
2026-05-09 00:43 8.26784 124.13217 16910 ft 272 kts 173°
2026-05-09 00:43 8.24895 124.13349 16911 ft 272 kts 173°
2026-05-09 00:44 8.23008 124.13482 16912 ft 272 kts 173°
2026-05-09 00:44 8.21119 124.13614 16910 ft 272 kts 173°
2026-05-09 00:44 8.19251 124.13745 16913 ft 272 kts 173°
2026-05-09 00:44 8.17360 124.13878 16913 ft 272 kts 173°
2026-05-09 00:45 8.15468 124.14011 16917 ft 272 kts 174°
2026-05-09 00:45 8.13579 124.14142 16916 ft 272 kts 174°
2026-05-09 00:45 8.11688 124.14275 16924 ft 272 kts 174°
2026-05-09 00:45 8.09798 124.14408 16923 ft 272 kts 174°
2026-05-09 00:46 8.07907 124.14541 16917 ft 273 kts 174°
2026-05-09 00:46 8.06013 124.14673 16922 ft 273 kts 174°
2026-05-09 00:46 8.04120 124.14805 16925 ft 273 kts 174°
2026-05-09 00:46 8.02222 124.14938 16931 ft 274 kts 173°
2026-05-09 00:47 8.00323 124.15073 16931 ft 274 kts 174°
2026-05-09 00:47 7.98423 124.15206 16938 ft 273 kts 173°
2026-05-09 00:47 7.96528 124.15337 16928 ft 274 kts 174°
2026-05-09 00:47 7.94649 124.15467 16937 ft 274 kts 174°
2026-05-09 00:48 7.92746 124.15600 16938 ft 274 kts 174°
2026-05-09 00:48 7.90840 124.15733 16938 ft 275 kts 173°
2026-05-09 00:48 7.88928 124.15868 16935 ft 275 kts 173°
2026-05-09 00:48 7.87013 124.16003 16933 ft 275 kts 173°
2026-05-09 00:49 7.85104 124.16136 16937 ft 275 kts 173°
2026-05-09 00:49 7.83199 124.16269 16940 ft 274 kts 174°
2026-05-09 00:49 7.81297 124.16402 16931 ft 274 kts 173°
2026-05-09 00:49 7.79399 124.16534 16931 ft 273 kts 174°
2026-05-09 00:50 7.77504 124.16667 16937 ft 273 kts 174°
2026-05-09 00:50 7.75635 124.16798 16929 ft 273 kts 173°
2026-05-09 00:50 7.73744 124.16929 16935 ft 272 kts 173°
2026-05-09 00:50 7.71852 124.17063 16926 ft 272 kts 173°
2026-05-09 00:51 7.69961 124.17196 16928 ft 273 kts 173°
2026-05-09 00:51 7.68070 124.17327 16931 ft 272 kts 173°
2026-05-09 00:51 7.66181 124.17458 16935 ft 272 kts 173°
2026-05-09 00:51 7.64905 124.17548 16925 ft 272 kts 173°
2026-05-09 00:52 7.62404 124.17723 16930 ft 272 kts 173°
2026-05-09 00:52 7.60512 124.17854 16927 ft 272 kts 173°
2026-05-09 00:52 7.58625 124.17988 16921 ft 272 kts 174°
2026-05-09 00:52 7.56737 124.18119 16916 ft 272 kts 173°
2026-05-09 00:53 7.55489 124.18206 16923 ft 272 kts 174°
2026-05-09 00:53 7.52964 124.18383 16911 ft 272 kts 173°
2026-05-09 00:53 7.51714 124.18470 16920 ft 272 kts 174°
2026-05-09 00:53 7.49825 124.18602 16909 ft 272 kts 174°
2026-05-09 00:54 7.47936 124.18735 16905 ft 272 kts 174°
2026-05-09 00:54 7.46047 124.18866 16909 ft 272 kts 173°
2026-05-09 00:54 7.44153 124.18998 16910 ft 273 kts 173°
2026-05-09 00:54 7.42260 124.19131 16911 ft 273 kts 173°
2026-05-09 00:55 7.40368 124.19262 16912 ft 273 kts 174°
2026-05-09 00:55 7.38475 124.19394 16901 ft 273 kts 174°
2026-05-09 00:55 7.36582 124.19526 16899 ft 272 kts 173°
2026-05-09 00:55 7.34693 124.19658 16909 ft 272 kts 173°
2026-05-09 00:56 7.32800 124.19789 16904 ft 272 kts 173°
2026-05-09 00:56 7.30912 124.19922 16901 ft 272 kts 173°
2026-05-09 00:56 7.29022 124.20054 16905 ft 272 kts 173°
2026-05-09 00:56 7.27133 124.20186 16894 ft 272 kts 173°
2026-05-09 00:57 7.25243 124.20317 16897 ft 272 kts 173°
2026-05-09 00:57 7.23352 124.20450 16900 ft 273 kts 173°
2026-05-09 00:57 7.21454 124.20582 16899 ft 273 kts 173°
2026-05-09 00:57 7.19564 124.20738 16888 ft 272 kts 168°
2026-05-09 00:58 7.17811 124.21390 16889 ft 268 kts 151°
2026-05-09 00:58 7.16174 124.22289 16898 ft 268 kts 147°
2026-05-09 00:58 7.14591 124.23283 16902 ft 268 kts 144°
2026-05-09 00:58 7.13070 124.24320 16899 ft 268 kts 143°
2026-05-09 00:59 7.11554 124.25411 16900 ft 268 kts 142°
2026-05-09 00:59 7.10061 124.26529 16903 ft 268 kts 141°
2026-05-09 00:59 7.08577 124.27672 16904 ft 268 kts 140°
2026-05-09 00:59 7.07110 124.28823 16906 ft 267 kts 140°
2026-05-09 01:00 7.05650 124.29983 16905 ft 267 kts 139°
2026-05-09 01:00 7.04191 124.31151 16906 ft 268 kts 139°
2026-05-09 01:00 7.02739 124.32320 16909 ft 267 kts 139°
2026-05-09 01:00 7.01287 124.33491 16905 ft 267 kts 139°
2026-05-09 01:01 6.99840 124.34658 16904 ft 267 kts 139°
2026-05-09 01:01 6.98392 124.35829 16910 ft 267 kts 139°
2026-05-09 01:01 6.96947 124.36999 16911 ft 267 kts 139°
2026-05-09 01:01 6.95499 124.38169 16908 ft 267 kts 139°
2026-05-09 01:02 6.94055 124.39339 16908 ft 267 kts 139°
2026-05-09 01:02 6.92611 124.40509 16908 ft 267 kts 139°
2026-05-09 01:02 6.91163 124.41679 16907 ft 267 kts 139°
2026-05-09 01:02 6.89717 124.42848 16907 ft 267 kts 139°
2026-05-09 01:03 6.88269 124.44019 16909 ft 267 kts 139°
2026-05-09 01:03 6.86821 124.45188 16909 ft 267 kts 139°
2026-05-09 01:03 6.85374 124.46359 16915 ft 266 kts 139°
2026-05-09 01:03 6.83932 124.47527 16910 ft 266 kts 139°
2026-05-09 01:04 6.82485 124.48697 16912 ft 266 kts 139°
2026-05-09 01:04 6.81043 124.49865 16914 ft 266 kts 139°
2026-05-09 01:04 6.79598 124.51034 16912 ft 266 kts 139°
2026-05-09 01:04 6.78154 124.52201 16911 ft 266 kts 139°
2026-05-09 01:05 6.76710 124.53369 16912 ft 266 kts 139°
2026-05-09 01:05 6.75268 124.54535 16919 ft 266 kts 139°
2026-05-09 01:05 6.72377 124.56871 16918 ft 266 kts 139°
2026-05-09 01:06 6.70953 124.58024 16916 ft 266 kts 139°
2026-05-09 01:06 6.69508 124.59191 16914 ft 266 kts 139°
2026-05-09 01:06 6.68058 124.60348 16924 ft 266 kts 140°
2026-05-09 01:06 6.66595 124.61493 16919 ft 266 kts 140°
2026-05-09 01:07 6.65125 124.62629 16918 ft 266 kts 141°
2026-05-09 01:07 6.63653 124.63757 16922 ft 266 kts 141°
2026-05-09 01:07 6.62172 124.64886 16923 ft 267 kts 141°
2026-05-09 01:07 6.60692 124.66010 16919 ft 267 kts 141°
2026-05-09 01:08 6.59211 124.67133 16919 ft 267 kts 141°
2026-05-09 01:08 6.57729 124.68257 16925 ft 267 kts 141°
2026-05-09 01:08 6.56245 124.69379 16927 ft 266 kts 141°
2026-05-09 01:08 6.54767 124.70499 16922 ft 266 kts 141°
2026-05-09 01:09 6.53285 124.71621 16924 ft 266 kts 141°
2026-05-09 01:09 6.51805 124.72742 16915 ft 266 kts 141°
2026-05-09 01:09 6.50328 124.73860 16931 ft 266 kts 141°
2026-05-09 01:09 6.48852 124.74977 16923 ft 266 kts 141°
2026-05-09 01:10 6.47376 124.76098 16928 ft 266 kts 141°
2026-05-09 01:10 6.45899 124.77216 16928 ft 266 kts 141°
2026-05-09 01:10 6.44438 124.78322 16924 ft 266 kts 141°
2026-05-09 01:10 6.42960 124.79441 16921 ft 266 kts 141°
2026-05-09 01:11 6.41505 124.80542 16713 ft 257 kts 141°
2026-05-09 01:11 6.40115 124.81683 16375 ft 255 kts 135°
2026-05-09 01:11 6.38867 124.82971 16066 ft 259 kts 130°
2026-05-09 01:11 6.37706 124.84331 15785 ft 263 kts 127°
2026-05-09 01:12 6.36570 124.85789 15502 ft 266 kts 126°
2026-05-09 01:12 6.35463 124.87290 15233 ft 268 kts 124°
2026-05-09 01:12 6.34379 124.88818 14990 ft 269 kts 123°
2026-05-09 01:12 6.33306 124.90362 14742 ft 270 kts 123°
2026-05-09 01:13 6.32234 124.91909 14471 ft 270 kts 124°
2026-05-09 01:13 6.31111 124.93428 14231 ft 270 kts 126°
2026-05-09 01:13 6.29952 124.94917 13993 ft 271 kts 127°
2026-05-09 01:13 6.28781 124.96379 13682 ft 266 kts 127°
2026-05-09 01:14 6.27618 124.97803 13326 ft 262 kts 128°
2026-05-09 01:14 6.26457 124.99206 12972 ft 259 kts 128°
2026-05-09 01:14 6.25303 125.00591 12617 ft 257 kts 128°
2026-05-09 01:14 6.24156 125.01961 12274 ft 255 kts 128°
2026-05-09 01:15 6.23013 125.03319 11940 ft 254 kts 128°
2026-05-09 01:15 6.21877 125.04670 11608 ft 252 kts 128°
2026-05-09 01:15 6.20749 125.06010 11280 ft 250 kts 128°
2026-05-09 01:15 6.19632 125.07340 10958 ft 248 kts 128°
2026-05-09 01:16 6.18519 125.08664 10646 ft 247 kts 128°
2026-05-09 01:16 6.17414 125.09975 10346 ft 245 kts 128°
2026-05-09 01:16 6.16316 125.11281 10047 ft 244 kts 128°
2026-05-09 01:17 6.14133 125.13873 9403 ft 243 kts 128°
2026-05-09 01:17 6.13049 125.15166 9035 ft 242 kts 128°
2026-05-09 01:17 6.11960 125.16458 8671 ft 241 kts 129°
2026-05-09 01:17 6.10592 125.17422 8279 ft 246 kts 160°
2026-05-09 01:18 6.08905 125.17684 7925 ft 243 kts 173°
2026-05-09 01:18 6.07344 125.17807 7600 ft 236 kts 174°
2026-05-09 01:18 6.05721 125.17933 7244 ft 232 kts 173°
2026-05-09 01:18 6.04161 125.18083 6899 ft 228 kts 172°
2026-05-09 01:19 6.02614 125.18272 6552 ft 226 kts 170°
2026-05-09 01:19 6.01064 125.18505 6196 ft 224 kts 169°
2026-05-09 01:19 5.99533 125.18768 5829 ft 222 kts 167°
2026-05-09 01:19 5.98014 125.19052 5458 ft 221 kts 167°
2026-05-09 01:20 5.96507 125.19351 5096 ft 220 kts 167°
2026-05-09 01:20 5.95004 125.19656 4731 ft 219 kts 166°
2026-05-09 01:20 5.93512 125.19965 4363 ft 218 kts 166°
2026-05-09 01:20 5.92031 125.20275 4006 ft 217 kts 167°
2026-05-09 01:21 5.90548 125.20535 3645 ft 216 kts 177°
2026-05-09 01:21 5.89118 125.20119 3247 ft 218 kts 216°
2026-05-09 01:21 5.88196 125.18956 2851 ft 214 kts 251°
2026-05-09 01:21 5.87857 125.17520 2596 ft 213 kts 262°
2026-05-09 01:22 5.87643 125.16034 2476 ft 214 kts 265°
2026-05-09 01:22 5.87492 125.14583 2475 ft 199 kts 268°
2026-05-09 01:22 5.87383 125.13220 2452 ft 194 kts 271°
2026-05-09 01:22 5.87769 125.12024 2444 ft 172 kts 314°
2026-05-09 01:23 5.88750 125.11535 2485 ft 156 kts 354°
2026-05-09 01:23 5.89820 125.11417 2497 ft 152 kts 356°
2026-05-09 01:23 5.90840 125.11342 2504 ft 143 kts 358°
2026-05-09 01:23 5.91729 125.11284 2532 ft 123 kts 358°
2026-05-09 01:24 5.92582 125.11218 2544 ft 126 kts 357°
2026-05-09 01:24 5.93469 125.11137 2541 ft 123 kts 356°
2026-05-09 01:24 5.94320 125.11051 2496 ft 131 kts 356°
2026-05-09 01:24 5.95227 125.10942 2379 ft 131 kts 353°
2026-05-09 01:25 5.96119 125.10817 2258 ft 130 kts 354°
2026-05-09 01:25 5.97024 125.10699 2120 ft 131 kts 354°
2026-05-09 01:25 5.97918 125.10594 1889 ft 129 kts 354°
2026-05-09 01:25 5.98806 125.10491 1711 ft 128 kts 354°
2026-05-09 01:26 5.99690 125.10377 1569 ft 128 kts 353°
2026-05-09 01:26 6.00576 125.10272 1353 ft 129 kts 353°
2026-05-09 01:26 6.01465 125.10161 1178 ft 128 kts 352°
2026-05-09 01:26 6.02339 125.10042 976 ft 124 kts 354°
2026-05-09 01:27 6.03190 125.09944 793 ft 123 kts 354°
2026-05-09 01:27 6.04024 125.09837 625 ft 116 kts 354°
2026-05-09 01:27 6.04749 125.09748 520 ft 90 kts 354°
2026-05-09 01:27 6.05238 125.09688 515 ft 45 kts 353°
2026-05-09 01:28 6.05473 125.09659 515 ft 30 kts 353°
2026-05-09 01:28 6.05655 125.09638 514 ft 23 kts 353°
2026-05-09 01:28 6.05785 125.09623 515 ft 8 kts 12°
2026-05-09 01:28 6.05813 125.09654 515 ft 5 kts 71°
2026-05-09 01:29 6.05819 125.09682 515 ft 4 kts 80°
2026-05-09 01:29 6.05828 125.09747 515 ft 8 kts 84°
2026-05-09 01:29 6.05834 125.09805 515 ft 9 kts 83°
2026-05-09 01:29 6.05851 125.09856 515 ft 7 kts 33°
2026-05-09 01:30 6.05896 125.09869 515 ft 6 kts 47°
2026-05-09 01:30 6.05906 125.09909 515 ft 6 kts 82°
2026-05-09 01:30 6.05909 125.09932 515 ft 1 kts 82°